Regional Weather Roundup
Issued by NWS

Home | Current Version | Previous Version | Text Only | Print | Product List | Glossary On
Versions: 1 2 3 4 5 6 7 8 9 10 11 12 13 14 15 16 17 18 19 20 21 22 23 24 25 26 27 28 29 30 31 32 33 34 35 36 37 38 39 40 41 42 43 44 45 46 47 48 49 50
000
ASUS43 KLOT 011210
RWRIL

ILLINOIS REGIONAL WEATHER ROUNDUP
NATIONAL WEATHER SERVICE CHICAGO/ROMEOVILLE IL
700 AM CDT WED OCT 01 2014

NOTE: "FAIR" INDICATES FEW OR NO CLOUDS BELOW 12,000 FEET WITH NO
SIGNIFICANT WEATHER AND/OR OBSTRUCTIONS TO VISIBILITY.

* THESE STATIONS ARE NOT UNDER NWS QUALITY CONTROL. THEY ALSO MAY NOT
  REPORT WEATHER SUCH AS PRECIPITATION OR FOG.

ILZ001-002-007-009-015-016-024-011300-
NORTHWEST ILLINOIS

CITY           SKY/WX    TMP DP  RH WIND       PRES   REMARKS
MOLINE         NOT AVBL
SAVANNA*       PTCLDY    51  46  85 SE7       29.96R
$$

ILZ003-004-008-010-011-017-018-011300-
NORTH CENTRAL ILLINOIS

CITY           SKY/WX    TMP DP  RH WIND       PRES   REMARKS
ROCKFORD       PTCLDY    49  45  86 E6        30.00F
6HR MIN TEMP:  49; 6HR MAX TEMP:  52;

FREEPORT*      CLEAR     46  44  95 SE5       29.99S
ROCHELLE*      PTCLDY    45  44  97 SE3       29.99S
DE KALB*       CLEAR     45  43  92 E7        30.00S
PERU*          MOCLDY    51  46  83 E9        29.98S
$$

ILZ005-006-012>014-019>023-011300-
NORTHEAST ILLINOIS

CITY           SKY/WX    TMP DP  RH WIND       PRES   REMARKS
CHICAGO-OHARE  PTCLDY    50  45  83 SE8       30.01R
6HR MIN TEMP:  49; 6HR MAX TEMP:  55;

CHICAGO-MIDWAY PTCLDY    53  47  79 SE7       30.01S
6HR MIN TEMP:  52; 6HR MAX TEMP:  57;

AURORA         CLEAR     49  44  83 E7        30.00S
6HR MIN TEMP:  47; 6HR MAX TEMP:  54;

LANSING*       CLEAR     44  44  98 E5        30.02S
JOLIET*        CLEAR     48  45  91 E5        30.01R
WAUKEGAN       NOT AVBL
DUPAGE AIRPORT CLEAR     49  45  86 SE6       30.00R
6HR MIN TEMP:  49; 6HR MAX TEMP:  55;

KANKAKEE*      CLEAR     44  43  97 E5        30.01S
WHEELING       CLOUDY    55  47  74 S7        30.03R
6HR MIN TEMP:  55; 6HR MAX TEMP:  57;

MORRIS*        CLEAR     48  47  99 E5        29.99S
ROMEOVILLE*    CLEAR     48  46  93 SE5       30.01R
NORTHERLY ISL    N/A     56  47  71 E13         N/A
$$

LMZ740>746-011300-
SOUTHERN LAKE MICHIGAN

STATION/POSITION SKY/WX   TEMP    WIND        PRES    VSBY  WAVE
                          AIR SEA DIR/SP/G                  HT/PER
                          (F)     (DEG/KT/KT) (MB)    (MI)  (FT/S)
SOUTHERN BUOY              57 62  150/ 10/ 14 1016.8R         2/ 3
WAUKEGAN HARBOR            57     150/ 14/ 17   N/A
HARRISON CRIB              56     150/ 15/ 20   N/A
BURNHAM HARBOR             56     130/ 11/ 14   N/A
CALUMET HARBOR             55     130/  7/  9 1015.2S
MICHIGAN CITY              53      80/  4/  4   N/A
MICHIGAN CITY 6N           55 64  140/  6/ 10   N/A           2/ 2
ST. JOSEPH                 55 62  100/  6/ 10   N/A           1/ 2
$$

ILZ025>027-034>036-040-047-049-050-058-095>099-011300-
WEST-CENTRAL ILLINOIS

CITY           SKY/WX    TMP DP  RH WIND       PRES   REMARKS
QUINCY         CLEAR     54  51  90 SE12      29.89R
GALESBURG*     MOCLDY    51  47  88 E7        29.92S
MACOMB*        MOCLDY    50  48  94 SE6       29.94S
JACKSONVILLE*  CLEAR     53  51  92 E5        29.93S FOG
PITTSFIELD*    CLEAR     54  51  91 E3        29.92S
$$

ILZ028>032-037-038-041>044-048-051>054-059>061-011300-
CENTRAL ILLINOIS

CITY           SKY/WX    TMP DP  RH WIND       PRES   REMARKS
PONTIAC        PTCLDY    48  46  93 E6        29.98S
BLOOMINGTON    CLEAR     50  48  92 E9          N/A
DECATUR        MOCLDY    52  49  89 E7        29.97R
PEORIA         PTCLDY    54  47  77 E5        29.95S
6HR MIN TEMP:  53; 6HR MAX TEMP:  55;

LACON*         MOCLDY    48  45  88 SE3       29.96S
LINCOLN*       PTCLDY    53  49  87 SE3       29.94S
SPRINGFIELD    CLEAR     53  49  86 SE8       29.94S
6HR MIN TEMP:  53; 6HR MAX TEMP:  56;

TAYLORVILLE    CLEAR     52  50  93 E9        29.94F
$$

ILZ033-039-045-046-055>057-062-063-011300-
EAST-CENTRAL ILLINOIS

CITY           SKY/WX    TMP DP  RH WIND       PRES   REMARKS
CHAMPAIGN      PTCLDY    49  47  93 E6        29.98R
DANVILLE*      PTCLDY    47  46  95 E5        29.97S
RANTOUL*       CLEAR     49  46  88 E5        29.99S
MATTOON        PTCLDY    52  50  93 SE6       29.96R
PARIS*         CLEAR     49  49  99 CALM      29.99S
$$

ILZ079-100>102-011300-
SOUTHWEST ILLINOIS

CITY           SKY/WX    TMP DP  RH WIND       PRES   REMARKS
BELLEVILLE     PTCLDY    57  57 100 CALM      29.92R FOG
CAHOKIA*       PTCLDY    61  59  93 SE5       29.91S
SPARTA*          N/A     61  59  94 SE6       29.93S FOG
$$

ILZ064>066-069>071-074>076-080>082-084>086-088>090-092>094-011300-
SOUTH-CENTRAL ILLINOIS

CITY           SKY/WX    TMP DP  RH WIND       PRES   REMARKS
CARBONDALE     MOCLDY    54  53  97 CALM      29.93R FOG
6HR MIN TEMP:  52; 6HR MAX TEMP:  57;

CAIRO*         FOG       58  56  93 CALM      29.92S VSB 1/4
EFFINGHAM*     RAIN      54  50  88 E5        29.96S
MARION         PTCLDY    59  59 100 SE5       29.94R
CENTRALIA*     PTCLDY    56  54  92 E3        29.93S FOG
SALEM*         CLEAR     58  56  94 E5        29.94S
METROPOLIS*    PTCLDY    54  54 100 CALM      29.93R FOG
$$

ILZ067-068-072-073-078-083-087-091-011300-
SOUTHEAST ILLINOIS

CITY           SKY/WX    TMP DP  RH WIND       PRES   REMARKS
LAWRENCEVILLE  CLEAR     53  52  96 NE3       29.97S FOG
FLORA*         CLEAR     54  53  97 NE3       29.96R FOG
FAIRFIELD*     MOCLDY    57  55  94 CALM      29.95R FOG
HARRISBURG*    CLEAR     59  59 100 CALM      29.94S FOG
ROBINSON*      CLEAR     53  52  97 CALM      29.98S
CARMI*         FOG       56  56  99 NE3       29.94S VSB 1/2
$$

ABBREVIATIONS USED IN REMARKS
   TC - TEMPERATURE IN CELSIUS
  WCI - WIND CHILL INDEX
   HX - HEAT INDEX
  VSB - VISIBILITY
$$




USA.gov is the U.S. government's official web portal to all federal, state and local government web resources and services.